| time (UTC) | temp F | wind direction | speed knots | gust knots | rain 1hr in | rain 24hr in | rain mn in | humidity % | barometer mb |
| 20260507063047 | 49 | 296 | 0.0 | 1.7 | 0.00 | 0.00 | 0.00 | 88 | 1022.0 |
| 20260507061542 | 49 | 304 | 0.0 | 3.5 | 0.00 | 0.00 | 0.00 | 88 | 1021.9 |
| 20260507060046 | 50 | 304 | 0.0 | 1.7 | 0.00 | 0.00 | 0.00 | 87 | 1021.9 |
| 20260507054542 | 50 | 287 | 0.0 | 4.3 | 0.00 | 0.00 | 0.00 | 87 | 1022.0 |
| 20260507053040 | 50 | 278 | 0.0 | 4.3 | 0.00 | 0.00 | 0.00 | 87 | 1022.0 |
| 20260507051539 | 51 | 295 | 1.7 | 4.3 | 0.00 | 0.00 | 0.00 | 86 | 1021.9 |
| 20260507050042 | 51 | 4 | 1.7 | 6.1 | 0.00 | 0.00 | 0.00 | 86 | 1022.2 |
| 20260507044537 | 52 | 273 | 0.0 | 2.6 | 0.00 | 0.00 | 0.00 | 87 | 1022.1 |
| 20260507043038 | 52 | 335 | 0.0 | 3.5 | 0.00 | 0.00 | 0.00 | 87 | 1022.1 |
| 20260507041549 | 52 | 290 | 0.9 | 3.5 | 0.00 | 0.00 | 0.00 | 87 | 1022.1 |
| 20260507040033 | 52 | 333 | 0.0 | 4.3 | 0.00 | 0.00 | 0.00 | 87 | 1021.9 |
| 20260507034536 | 52 | 293 | 0.9 | 3.5 | 0.00 | 0.00 | 0.00 | 86 | 1021.7 |
| 20260507033035 | 53 | 266 | 0.9 | 9.6 | 0.00 | 0.00 | 0.00 | 85 | 1021.6 |
| 20260507031531 | 53 | 269 | 0.9 | 5.2 | 0.00 | 0.00 | 0.00 | 85 | 1021.5 |
| 20260507030031 | 53 | 283 | 0.9 | 4.3 | 0.00 | 0.00 | 0.00 | 84 | 1021.5 |
| 20260507024533 | 54 | 329 | 2.6 | 7.8 | 0.00 | 0.00 | 0.00 | 84 | 1021.3 |
| 20260507023030 | 54 | 276 | 0.9 | 4.3 | 0.00 | 0.00 | 0.00 | 83 | 1021.3 |
| 20260507021529 | 55 | 320 | 0.9 | 5.2 | 0.00 | 0.00 | 0.00 | 82 | 1021.3 |
| 20260507020029 | 55 | 276 | 0.0 | 4.3 | 0.00 | 0.00 | 0.00 | 81 | 1021.2 |
| 20260507014546 | 56 | 326 | 0.9 | 4.3 | 0.00 | 0.00 | 0.00 | 81 | 1021.3 |
| 20260507013040 | 56 | 229 | 2.6 | 6.1 | 0.00 | 0.00 | 0.00 | 80 | 1021.1 |
| 20260507011535 | 57 | 323 | 2.6 | 7.8 | 0.00 | 0.00 | 0.00 | 78 | 1021.1 |
| 20260507010032 | 57 | 293 | 1.7 | 7.0 | 0.00 | 0.00 | 0.00 | 78 | 1021.1 |
| 20260507004526 | 58 | 342 | 0.9 | 6.1 | 0.00 | 0.00 | 0.00 | 78 | 1021.2 |
| 20260507003026 | 58 | 326 | 1.7 | 5.2 | 0.00 | 0.00 | 0.00 | 78 | 1021.2 |
| 20260507001525 | 58 | 342 | 0.0 | 4.3 | 0.00 | 0.00 | 0.00 | 79 | 1021.3 |
| 20260507000029 | 59 | 328 | 2.6 | 6.1 | 0.00 | 0.00 | 0.00 | 77 | 1021.3 |
| 20260506234524 | 59 | 283 | 1.7 | 6.1 | 0.00 | 0.00 | 0.00 | 76 | 1021.1 |
| 20260506233029 | 60 | 245 | 1.7 | 5.2 | 0.00 | 0.00 | 0.00 | 75 | 1021.1 |
| 20260506231523 | 61 | 322 | 0.9 | 3.5 | 0.00 | 0.00 | 0.00 | 75 | 1021.2 |
| 20260506230023 | 61 | 297 | 1.7 | 8.7 | 0.00 | 0.00 | 0.00 | 75 | 1021.2 |
| 20260506224522 | 60 | 356 | 0.0 | 6.1 | 0.00 | 0.00 | 0.00 | 77 | 1021.3 |
| 20260506223019 | 59 | 329 | 1.7 | 6.1 | 0.00 | 0.00 | 0.00 | 77 | 1021.3 |
| 20260506221518 | 60 | 347 | 0.9 | 4.3 | 0.00 | 0.00 | 0.00 | 75 | 1021.4 |
| 20260506220019 | 60 | 1 | 0.0 | 2.6 | 0.00 | 0.00 | 0.00 | 76 | 1021.4 |
| 20260506214517 | 59 | 23 | 0.0 | 3.5 | 0.00 | 0.00 | 0.00 | 75 | 1021.4 |
| 20260506213016 | 60 | 323 | 1.7 | 4.3 | 0.00 | 0.00 | 0.00 | 76 | 1021.3 |
| 20260506211515 | 59 | 342 | 0.9 | 3.5 | 0.00 | 0.00 | 0.00 | 77 | 1021.3 |
| 20260506210015 | 59 | 354 | 0.9 | 3.5 | 0.00 | 0.00 | 0.00 | 79 | 1021.4 |
| 20260506204510 | 58 | 308 | 0.9 | 3.5 | 0.00 | 0.00 | 0.00 | 79 | 1021.5 |
| 20260506203008 | 58 | 37 | 0.9 | 2.6 | 0.00 | 0.00 | 0.00 | 81 | 1021.4 |
| 20260506201508 | 57 | 32 | 0.0 | 4.3 | 0.00 | 0.00 | 0.00 | 81 | 1021.3 |
| 20260506200006 | 57 | 343 | 0.9 | 2.6 | 0.00 | 0.00 | 0.00 | 81 | 1021.3 |
| 20260506194506 | 57 | 4 | 0.0 | 3.5 | 0.00 | 0.00 | 0.00 | 83 | 1021.3 |
| 20260506193001 | 55 | 131 | 0.0 | 0.9 | 0.00 | 0.00 | 0.00 | 87 | 1021.3 |
| 20260506191600 | 54 | 49 | 0.0 | 0.9 | 0.00 | 0.00 | 0.00 | 90 | 1021.5 |
| 20260506190056 | 53 | 358 | 0.0 | 2.6 | 0.00 | 0.00 | 0.00 | 91 | 1021.6 |
| 20260506184555 | 53 | 296 | 0.0 | 0.0 | 0.00 | 0.00 | 0.00 | 92 | 1021.5 |
| 20260506183054 | 53 | 302 | 0.0 | 0.0 | 0.00 | 0.00 | 0.00 | 93 | 1021.3 |
| 20260506181551 | 53 | 285 | 0.0 | 1.7 | 0.00 | 0.00 | 0.00 | 94 | 1021.4 |
| 20260506180055 | 53 | 278 | 0.9 | 3.5 | 0.00 | 0.00 | 0.00 | 94 | 1021.2 |
| 20260506174548 | 52 | 308 | 0.0 | 1.7 | 0.00 | 0.00 | 0.00 | 95 | 1021.1 |
| 20260506173053 | 52 | 341 | 0.0 | 0.0 | 0.00 | 0.00 | 0.00 | 96 | 1021.1 |
| 20260506171552 | 52 | 285 | 0.0 | 0.9 | 0.00 | 0.00 | 0.00 | 96 | 1021.1 |
| 20260506170043 | 52 | 352 | 0.0 | 1.7 | 0.00 | 0.00 | 0.00 | 97 | 1021.0 |
| 20260506164542 | 51 | 305 | 0.0 | 0.9 | 0.00 | 0.00 | 0.00 | 97 | 1020.9 |
| 20260506163047 | 51 | 35 | 0.0 | 3.5 | 0.00 | 0.00 | 0.00 | 97 | 1020.8 |
| 20260506161551 | 51 | 83 | 0.0 | 1.7 | 0.00 | 0.00 | 0.00 | 97 | 1020.6 |
| 20260506160037 | 51 | 94 | 0.0 | 1.7 | 0.00 | 0.00 | 0.00 | 97 | 1020.6 |
| 20260506154537 | 51 | 13 | 0.0 | 1.7 | 0.00 | 0.00 | 0.00 | 97 | 1020.6 |
| 20260506153038 | 51 | 355 | 0.0 | 0.9 | 0.00 | 0.00 | 0.00 | 97 | 1020.7 |
| 20260506151535 | 51 | 356 | 0.0 | 0.9 | 0.00 | 0.00 | 0.00 | 97 | 1020.6 |
| 20260506150035 | 50 | 356 | 0.0 | 0.0 | 0.00 | 0.00 | 0.00 | 97 | 1020.6 |
| 20260506144530 | 50 | 347 | 0.0 | 1.7 | 0.00 | 0.00 | 0.00 | 97 | 1020.4 |
| 20260506143030 | 50 | 100 | 0.9 | 1.7 | 0.00 | 0.00 | 0.00 | 97 | 1020.0 |
| 20260506141529 | 50 | 101 | 0.0 | 1.7 | 0.00 | 0.00 | 0.00 | 97 | 1020.0 |
| 20260506140028 | 50 | 281 | 0.0 | 0.0 | 0.00 | 0.00 | 0.00 | 97 | 1020.0 |
| 20260506134603 | 50 | 281 | 0.0 | 0.0 | 0.00 | 0.00 | 0.00 | 97 | 1020.2 |
| 20260506133026 | 50 | 245 | 0.0 | 0.9 | 0.00 | 0.00 | 0.00 | 96 | 1020.3 |
| 20260506131528 | 50 | 340 | 0.0 | 0.9 | 0.00 | 0.00 | 0.00 | 96 | 1020.0 |
| 20260506130024 | 50 | 310 | 0.0 | 0.9 | 0.00 | 0.00 | 0.00 | 96 | 1019.8 |
| 20260506124522 | 50 | 333 | 0.0 | 0.9 | 0.00 | 0.00 | 0.00 | 96 | 1019.8 |
| 20260506123021 | 50 | 333 | 0.0 | 0.9 | 0.00 | 0.00 | 0.00 | 96 | 1019.6 |
| 20260506121518 | 50 | 333 | 0.0 | 0.9 | 0.00 | 0.00 | 0.00 | 96 | 1019.5 |
| 20260506120018 | 50 | 333 | 0.0 | 0.0 | 0.00 | 0.00 | 0.00 | 96 | 1019.5 |
| 20260506114524 | 50 | 333 | 0.0 | 0.9 | 0.00 | 0.00 | 0.00 | 95 | 1019.4 |
| 20260506113018 | 50 | 332 | 0.0 | 0.0 | 0.00 | 0.00 | 0.00 | 95 | 1019.3 |
| 20260506111515 | 50 | 332 | 0.0 | 0.9 | 0.00 | 0.00 | 0.00 | 95 | 1019.3 |
| 20260506110016 | 50 | 321 | 0.0 | 0.9 | 0.00 | 0.00 | 0.00 | 95 | 1019.2 |
| 20260506104514 | 51 | 349 | 0.0 | 1.7 | 0.00 | 0.00 | 0.00 | 95 | 1019.2 |
| 20260506103021 | 51 | 250 | 0.0 | 0.9 | 0.00 | 0.00 | 0.00 | 94 | 1018.9 |
| 20260506101509 | 51 | 283 | 0.0 | 1.7 | 0.00 | 0.00 | 0.00 | 93 | 1018.8 |
| 20260506100009 | 51 | 251 | 0.0 | 0.9 | 0.00 | 0.00 | 0.00 | 93 | 1018.6 |
| 20260506094514 | 51 | 265 | 0.0 | 0.0 | 0.00 | 0.00 | 0.00 | 92 | 1018.6 |
| 20260506093007 | 52 | 274 | 0.0 | 0.9 | 0.00 | 0.00 | 0.00 | 92 | 1018.6 |
| 20260506091506 | 52 | 308 | 0.0 | 0.0 | 0.00 | 0.00 | 0.00 | 92 | 1018.6 |
| 20260506090006 | 52 | 308 | 0.0 | 1.7 | 0.00 | 0.00 | 0.00 | 93 | 1018.4 |
| 20260506084505 | 52 | 276 | 0.0 | 1.7 | 0.00 | 0.00 | 0.00 | 93 | 1018.4 |
| 20260506083005 | 52 | 296 | 0.0 | 0.0 | 0.00 | 0.00 | 0.00 | 94 | 1018.3 |
| 20260506081604 | 52 | 296 | 0.0 | 0.0 | 0.00 | 0.00 | 0.00 | 94 | 1018.2 |
| 20260506073050 | 51 | 258 | 0.0 | 0.0 | 0.00 | 0.00 | 0.00 | 96 | 1017.7 |
| 20260506071552 | 51 | 273 | 0.0 | 0.0 | 0.00 | 0.00 | 0.00 | 96 | 1017.8 |